[[{"header":{"parameterUnit":"m.s-1","parameterCategory":1,"la1":30.2991,"la2":30.254,"lo1":-89.0895,"lo2":-89.0444,"dy":0.0017,"dx":0.0017,"nx":28,"ny":28,"refTime":"2023-08-16T09:00:00:Z","depth":0,"parameterNumber":2,"parameterNumberName":"U-component_of_WINDS"},"data":[0,0,0,0,0,0,0,0,0,0,0,0,0,0,0,0,0,0,0,0,0,0,0,0,0,0,0,0,0,0,0,0,0,0,0,0,0,0,0,0,0,0,0,0,0,0,0,0,0,0,0,0,0,0,0,0,0,0,0.1559,0.1559,0,0.1524,0.1524,0.1523,0.1461,0.146,0.1459,0.1458,0.1423,0.1423,0.1423,0,0,0,0,0,0,0,0,0,0,0,0,0,0.1575,0.1575,0.1559,0.1559,0.1559,0.1524,0.1524,0.1523,0.1461,0.146,0.1458,0.1457,0.1423,0.1423,0.1423,0,0,0,0,0,0,0,0,0,0,0,0,0,0.1557,0.1575,0.1559,0.1523,0.152,0.1524,0.1524,0.1523,0.1462,0.146,0.1458,0.1456,0.1423,0.1423,0.1423,0.146,0,0,0.1424,0.1424,0,0,0,0,0,0,0,0,0.1558,0.1556,0.1529,0.1526,0.1522,0.1495,0.1516,0.1502,0.1462,0.1484,0.1458,0.1455,0.1448,0.1446,0.1444,0.1458,0.1457,0.1424,0.1424,0.1424,0.1424,0,0,0,0,0,0,0,0.1559,0.1557,0.1545,0.1529,0.1524,0.1509,0.1505,0.1513,0.1476,0.1482,0.1477,0.1474,0.1446,0.1444,0.1442,0.1456,0.1424,0.1424,0.1424,0.1424,0.1499,0.1501,0,0,0,0,0,0,0.1565,0.1559,0.1547,0.1544,0.1536,0.1511,0.1506,0.1506,0.1476,0.147,0.1475,0.1471,0.1444,0.1442,0.1441,0.1481,0.1424,0.1424,0.1425,0.1497,0.1499,0.1501,0,0,0,0,0,0,0.1566,0.1565,0.1548,0.155,0.1547,0.1512,0.1513,0.1506,0.1503,0.1471,0.1464,0.1479,0.1442,0.1441,0.1455,0.1479,0.1424,0.1425,0.1495,0.1498,0.15,0.1563,0,0,0,0,0,0,0.1567,0.1565,0.1579,0.1551,0.1547,0.1563,0.1514,0.1506,0.1504,0.1498,0.1473,0.1468,0.1441,0.1455,0.1456,0.1479,0.1425,0.1493,0.1496,0.1499,0.1559,0.1568,0.1576,0,0,0,0,0,0.1567,0.1599,0.158,0.1579,0.1563,0.1564,0.1562,0.1531,0.1506,0.1519,0.1498,0.1468,0.1477,0.1457,0.1457,0.1481,0.1491,0.1495,0.1499,0.1555,0.1566,0.1576,0,0,0,0,0,0,0.1631,0.1594,0.1573,0.1596,0.1584,0.1554,0.157,0.1543,0.1538,0.1533,0.1494,0.1489,0.1509,0.1496,0.1475,0.1515,0.1479,0.1483,0.1522,0.1532,0.154,0.1543,0.1425,0,0,0,0,0,0.1647,0.1651,0.1619,0.1643,0.1637,0.1605,0.1604,0.1581,0.1567,0.1561,0.1542,0.153,0.1529,0.153,0.1528,0.1557,0.1551,0.1573,0.1582,0.1589,0.1593,0.1606,0.1616,0.1515,0.1515,0.1515,0,0,0.1682,0.1662,0.1667,0.1655,0.1642,0.1647,0.1601,0.1608,0.1612,0.1563,0.1575,0.1561,0.1544,0.1566,0.1575,0.1556,0.1619,0.1594,0.16,0.16,0.1611,0.1621,0.163,0.1518,0.1517,0.1517,0,0,0.1747,0.1733,0.175,0.1739,0.172,0.1698,0.1703,0.1677,0.1665,0.1677,0.164,0.1644,0.1644,0.1634,0.1629,0.169,0.1662,0.1691,0.1734,0.1748,0.1756,0.1763,0.1784,0.1792,0.1695,0.1695,0.1695,0,0.1792,0.1797,0.1763,0.1772,0.1768,0.1723,0.1741,0.1731,0.1714,0.1712,0.1691,0.1691,0.1677,0.1695,0.171,0.1708,0.1711,0.1693,0.1757,0.1764,0.177,0.1789,0.1798,0.1699,0.1698,0.1698,0.1698,0,0.1853,0.1858,0.1875,0.1858,0.1855,0.1869,0.1837,0.1838,0.1815,0.1796,0.1808,0.179,0.1783,0.1786,0.1764,0.1801,0.179,0.1764,0.1728,0.1783,0.1801,0.1809,0.1704,0.1702,0.1701,0.17,0,0,0.1957,0.1921,0.1927,0.1919,0.1896,0.1899,0.191,0.1903,0.1905,0.1895,0.1903,0.1905,0.188,0.1874,0.1851,0.1863,0.1912,0.1835,0.1834,0.1849,0.1951,0.1971,0.198,0.1893,0.1895,0.1896,0.1952,0,0.2016,0.2033,0.2003,0.2027,0.2031,0.1988,0.1998,0.1985,0.1968,0.1968,0.1948,0.195,0.1918,0.1914,0.1924,0.1904,0.1932,0.1899,0.1901,0.1901,0.1905,0.1989,0.201,0.2064,0.1959,0.196,0.1961,0,0.2088,0.208,0.2105,0.208,0.208,0.209,0.208,0.2081,0.2066,0.2052,0.2046,0.2017,0.2027,0.1992,0.2005,0.1984,0.1983,0.1973,0.1974,0.1972,0.1934,0.1989,0.2081,0.2089,0.1972,0.1971,0.197,0,0.216,0.2156,0.217,0.2164,0.2135,0.2143,0.2131,0.2114,0.2111,0.2104,0.2102,0.2096,0.2092,0.2088,0.2059,0.2036,0.2075,0.2038,0.2063,0.2064,0.2073,0.2073,0.2165,0.2074,0.2074,0.2073,0.2073,0,0.2229,0.2246,0.2202,0.2211,0.2228,0.2193,0.2211,0.2195,0.218,0.2185,0.2148,0.2154,0.2115,0.2117,0.2094,0.2108,0.2107,0.2096,0.2089,0.2098,0.21,0.2097,0.2092,0.2075,0.2075,0.2075,0.2074,0,0.2312,0.2283,0.2296,0.2267,0.2261,0.2275,0.225,0.2257,0.2237,0.2244,0.2243,0.2212,0.2211,0.2182,0.2176,0.2161,0.2183,0.2171,0.2189,0.2184,0.2211,0.2209,0.2304,0.2314,0.2217,0.2218,0.2219,0,0.2358,0.2369,0.2342,0.2342,0.2332,0.2334,0.2331,0.2297,0.2295,0.2278,0.2287,0.2284,0.2279,0.2281,0.2257,0.2252,0.2238,0.2272,0.2237,0.2246,0.2238,0.2237,0.2238,0.2279,0.2281,0.2282,0.2282,0,0.2441,0.2426,0.2423,0.2416,0.2413,0.2406,0.2396,0.2398,0.2361,0.2361,0.236,0.2357,0.235,0.2347,0.2338,0.2326,0.2298,0.2294,0.2299,0.2308,0.2318,0.2312,0.2208,0.2291,0.229,0.229,0.2289,0.2289,0.2506,0.2514,0.2496,0.2494,0.2483,0.2475,0.2479,0.246,0.2458,0.2449,0.243,0.2432,0.2416,0.24,0.2391,0.2392,0.2375,0.2383,0.2385,0.2387,0.2392,0.2318,0.239,0.239,0.239,0.2389,0.2389,0,0.2587,0.2573,0.2572,0.2559,0.2557,0.2531,0.2519,0.2519,0.2521,0.2508,0.2504,0.2503,0.25,0.2477,0.2471,0.2476,0.2463,0.2476,0.2474,0.2472,0.2408,0.2403,0.2486,0.2486,0.2486,0.2486,0.2486,0.2486,0.2629,0.2641,0.2624,0.2631,0.2617,0.2618,0.2613,0.2605,0.2595,0.2595,0.2592,0.2576,0.2559,0.2552,0.2548,0.2541,0.254,0.2557,0.2546,0.2486,0.2477,0.2468,0.2463,0.2557,0.2557,0.2609,0.261,0.261]},{"header":{"parameterUnit":"m.s-1","parameterCategory":1,"la1":30.2991,"la2":30.254,"lo1":-89.0895,"lo2":-89.0444,"dy":0.0017,"dx":0.0017,"nx":28,"ny":28,"refTime":"2023-08-16T09:00:00:Z","depth":0,"parameterNumber":3,"parameterNumberName":"V-component_of_WINDS"},"data":[0,0,0,0,0,0,0,0,0,0,0,0,0,0,0,0,0,0,0,0,0,0,0,0,0,0,0,0,0,0,0,0,0,0,0,0,0,0,0,0,0,0,0,0,0,0,0,0,0,0,0,0,0,0,0,0,0,0,-0.514,-0.514,0,-0.5193,-0.5193,-0.5194,-0.5278,-0.528,-0.5281,-0.5283,-0.5335,-0.5335,-0.5335,0,0,0,0,0,0,0,0,0,0,0,0,0,-0.511,-0.511,-0.5139,-0.514,-0.5141,-0.5192,-0.5193,-0.5194,-0.5278,-0.528,-0.5282,-0.5283,-0.5335,-0.5335,-0.5335,0,0,0,0,0,0,0,0,0,0,0,0,0,-0.5139,-0.511,-0.5139,-0.5189,-0.5194,-0.5192,-0.5193,-0.5194,-0.5278,-0.528,-0.5282,-0.5284,-0.5335,-0.5335,-0.5335,-0.5288,0,0,-0.5335,-0.5335,0,0,0,0,0,0,0,0,-0.5137,-0.514,-0.5181,-0.5186,-0.5191,-0.5231,-0.5202,-0.5226,-0.5277,-0.5246,-0.5283,-0.5285,-0.5298,-0.5301,-0.5306,-0.5291,-0.5293,-0.5335,-0.5335,-0.5335,-0.5335,0,0,0,0,0,0,0,-0.5135,-0.5138,-0.516,-0.5182,-0.5188,-0.5208,-0.5215,-0.5207,-0.5258,-0.5249,-0.5255,-0.526,-0.5302,-0.5306,-0.5308,-0.5294,-0.5335,-0.5335,-0.5334,-0.5334,-0.5243,-0.5241,0,0,0,0,0,0,-0.5126,-0.5136,-0.5159,-0.5162,-0.5169,-0.5207,-0.5214,-0.5216,-0.5259,-0.5268,-0.5258,-0.5264,-0.5305,-0.5308,-0.531,-0.5258,-0.5335,-0.5334,-0.5334,-0.5245,-0.5242,-0.524,0,0,0,0,0,0,-0.5125,-0.5127,-0.5157,-0.5151,-0.5156,-0.5205,-0.5206,-0.5216,-0.522,-0.5266,-0.5275,-0.5253,-0.5307,-0.531,-0.5293,-0.5261,-0.5334,-0.5334,-0.5248,-0.5244,-0.5241,-0.5154,0,0,0,0,0,0,-0.5124,-0.5126,-0.5109,-0.515,-0.5156,-0.5139,-0.5204,-0.5215,-0.522,-0.5228,-0.5264,-0.5272,-0.5309,-0.5293,-0.5293,-0.5262,-0.5334,-0.5251,-0.5247,-0.5242,-0.5159,-0.5147,-0.5137,0,0,0,0,0,-0.5122,-0.5082,-0.5108,-0.511,-0.5136,-0.5137,-0.514,-0.5184,-0.5217,-0.52,-0.523,-0.5271,-0.5265,-0.529,-0.5292,-0.526,-0.5253,-0.5248,-0.5243,-0.5164,-0.515,-0.5137,0,0,0,0,0,0,-0.5035,-0.5088,-0.5117,-0.5089,-0.5108,-0.5151,-0.5131,-0.5167,-0.5177,-0.5183,-0.5238,-0.5245,-0.5221,-0.5239,-0.5266,-0.5218,-0.5266,-0.526,-0.5206,-0.5192,-0.5181,-0.5176,-0.5334,0,0,0,0,0,-0.5013,-0.5009,-0.5056,-0.5026,-0.5034,-0.5081,-0.5083,-0.5115,-0.5137,-0.5145,-0.5173,-0.5192,-0.5195,-0.5195,-0.52,-0.5164,-0.5172,-0.5143,-0.5131,-0.5122,-0.5116,-0.5098,-0.5085,-0.5222,-0.5222,-0.5222,0,0,-0.4966,-0.4994,-0.4989,-0.5009,-0.5028,-0.5023,-0.5087,-0.5079,-0.5075,-0.5144,-0.5129,-0.5151,-0.5175,-0.5148,-0.5138,-0.5163,-0.5081,-0.5115,-0.5107,-0.5106,-0.5091,-0.5078,-0.5066,-0.5219,-0.5219,-0.522,0,0,-0.4878,-0.4899,-0.4877,-0.4895,-0.4922,-0.4954,-0.4948,-0.4987,-0.5003,-0.499,-0.5041,-0.5038,-0.5042,-0.5057,-0.5065,-0.4985,-0.5023,-0.4985,-0.4926,-0.4908,-0.4897,-0.4887,-0.4858,-0.4846,-0.498,-0.4979,-0.4979,0,-0.4815,-0.481,-0.4861,-0.4849,-0.4857,-0.492,-0.4897,-0.4912,-0.4939,-0.4943,-0.4971,-0.4977,-0.4998,-0.4976,-0.4956,-0.4961,-0.4956,-0.498,-0.4894,-0.4886,-0.4878,-0.485,-0.4838,-0.4975,-0.4975,-0.4976,-0.4976,0,-0.4732,-0.4728,-0.4707,-0.4732,-0.4738,-0.4721,-0.4768,-0.4768,-0.48,-0.4829,-0.4814,-0.4842,-0.4854,-0.4852,-0.4883,-0.4833,-0.4848,-0.4885,-0.4934,-0.4859,-0.4833,-0.4823,-0.4968,-0.4969,-0.4971,-0.4972,0,0,-0.4588,-0.4643,-0.4634,-0.4647,-0.4683,-0.468,-0.4667,-0.4679,-0.4677,-0.4695,-0.4684,-0.4686,-0.4721,-0.473,-0.4764,-0.4748,-0.4682,-0.4787,-0.4789,-0.4765,-0.4628,-0.4599,-0.4586,-0.4708,-0.4707,-0.4705,-0.4626,0,-0.4506,-0.4486,-0.4531,-0.4499,-0.4496,-0.4557,-0.4545,-0.4566,-0.4592,-0.4593,-0.4623,-0.4623,-0.4669,-0.4675,-0.4663,-0.4692,-0.4655,-0.4699,-0.4698,-0.4697,-0.4687,-0.4573,-0.4542,-0.4465,-0.4616,-0.4614,-0.4613,0,-0.4407,-0.442,-0.4388,-0.4426,-0.4427,-0.4415,-0.443,-0.4431,-0.4456,-0.4476,-0.4487,-0.4528,-0.4517,-0.4566,-0.4552,-0.4581,-0.4583,-0.4598,-0.4596,-0.4596,-0.4649,-0.4567,-0.4442,-0.4429,-0.4598,-0.46,-0.4601,0,-0.4303,-0.4313,-0.4295,-0.4304,-0.4349,-0.4339,-0.4357,-0.4385,-0.439,-0.4403,-0.4407,-0.4419,-0.4424,-0.4433,-0.4475,-0.4507,-0.4455,-0.4508,-0.4471,-0.447,-0.4455,-0.4455,-0.4326,-0.446,-0.446,-0.446,-0.4461,0,-0.4205,-0.4183,-0.4249,-0.4238,-0.4215,-0.4268,-0.4243,-0.4268,-0.4292,-0.4286,-0.4341,-0.4334,-0.4392,-0.4392,-0.4425,-0.4408,-0.441,-0.4426,-0.4435,-0.442,-0.4418,-0.4421,-0.4426,-0.4458,-0.4458,-0.4459,-0.4459,0,-0.4084,-0.4128,-0.4112,-0.4157,-0.4167,-0.4148,-0.4186,-0.4177,-0.4209,-0.4201,-0.4202,-0.425,-0.4253,-0.4297,-0.4309,-0.4332,-0.43,-0.432,-0.4292,-0.4297,-0.4257,-0.426,-0.4124,-0.4108,-0.4254,-0.4252,-0.4251,0,-0.4017,-0.4002,-0.4045,-0.4046,-0.4061,-0.4061,-0.4067,-0.4119,-0.4122,-0.415,-0.4138,-0.4146,-0.4154,-0.4156,-0.4191,-0.4201,-0.4221,-0.4173,-0.4222,-0.4208,-0.4218,-0.4217,-0.4216,-0.4161,-0.4159,-0.4158,-0.4156,0,-0.3895,-0.3917,-0.3923,-0.3937,-0.3942,-0.3955,-0.3972,-0.3969,-0.4027,-0.4028,-0.4031,-0.4038,-0.4051,-0.4057,-0.4074,-0.4093,-0.4133,-0.4141,-0.4133,-0.4116,-0.41,-0.4107,-0.4261,-0.4143,-0.4144,-0.4145,-0.4146,-0.4147,-0.3798,-0.3787,-0.3816,-0.3821,-0.3839,-0.3853,-0.3847,-0.3878,-0.3883,-0.3897,-0.3929,-0.3927,-0.3954,-0.398,-0.3996,-0.3996,-0.402,-0.4008,-0.4005,-0.4001,-0.3992,-0.4101,-0.3999,-0.3999,-0.4,-0.4,-0.4001,0,-0.3676,-0.3698,-0.3703,-0.3724,-0.3728,-0.3769,-0.3789,-0.3789,-0.3788,-0.381,-0.3817,-0.3822,-0.3829,-0.3866,-0.3877,-0.387,-0.3888,-0.387,-0.387,-0.3874,-0.397,-0.3976,-0.3855,-0.3855,-0.3855,-0.3855,-0.3855,-0.3855,-0.3613,-0.3597,-0.3623,-0.3616,-0.3639,-0.3638,-0.3646,-0.366,-0.3678,-0.368,-0.3687,-0.3711,-0.3739,-0.3753,-0.3761,-0.3772,-0.3773,-0.3748,-0.3764,-0.3853,-0.3867,-0.388,-0.3886,-0.3748,-0.3748,-0.3668,-0.3667,-0.3667]}]]